SCP
0 0 -0 -0 -0 -0 -0 -0 -0 -0 -0 -0 -0 0 -0 0 0 0 0 0 0 0 0 -0 -0 -0 0 -0 -0 -0 -0 0 0
0 0 -0 -0 -0 -0 -0 -0 -0 -0 -0 -0 0 0 0 0 0 0 0 0 0 0 0 -0 -0 -0 0 -0 -0 -0 -0 0 0
0 0 0 -0 -0 -0 -0 -0 -0 -0 -0 -0 -0 -0 0 0 0 0 0 0 0 0 0 -0 -0 -0 -0 0 -0 -0 -0 0 0
0 0 0 -0 -0 -0 -0 -0 0 -0 -0 -0 -0 -0 -0 0 0 0 0 0 0 0 0 -0 -0 -0 -0 0 0 -0 -0 0 0
0 0 0 0 0 0 0 0 0 0 0 0 -0 -0 0 -0 0 -0 -0 0 0 0 0 0 0 0 -0 0 0 0 -0 -0 0
0 0 0 0 0 0 0 0 0 0 0 -0 0 0 0 0 -0 -0 -0 -0 -0 0 0 0 0 0 -0 0 0 0 0 0 0
0 0 0 0 0 0 0 0 0 0 0 0 0 0 0 0 -0 -0 -0 -0 -0 -0 0 0 0 0 0 0 0 0 0 0 0
0 0 0 0 0 0 0 0 0 0 0 0 0 0 0 0 0 0 0 0 -0 0 0 0 0 0 0 0 0 0 0 0 0
0 0 0 0 0 0 0 0 0 0 0 0 1 0 0 1 1 0 0 0 0 0 0 0 0 0 0 0 0 0 0 0 0
0 -0 -0 0 0 0 0 0 0 0 0 1 1 0 0 0 1 1 0 1 0 0 0 1 0 0 0 0 0 0 0 0 1
0 0 0 0 0 0 0 0 0 0 0 0 1 1 1 1 1 1 1 1 0 1 1 1 1 1 1 1 1 0 0 0 1
0 0 0 0 0 0 0 0 0 0 0 0 0 1 1 2 2 2 2 1 2 1 2 2 1 2 1 1 1 0 0 0 2
0 0 0 0 0 0 0 0 0 0 0 1 1 1 1 3 3 3 3 3 3 3 4 3 4 4 3 2 2 0 0 0 2
0 0 0 0 0 0 0 0 0 0 0 1 1 1 2 3 3 2 3 4 5 5 4 5 5 5 5 4 3 2 0 0 2
0 0 0 0 0 0 0 0 0 0 1 1 1 2 2 3 4 5 5 5 8 8 8 6 6 7 7 5 4 3 0 0 1
0 1 1 0 0 0 0 0 0 0 0 0 1 1 2 4 5 4 5 5 5 6 8 8 7 6 6 7 7 0 0 0 0
5 4 4 3 2 2 2 3 2 1 0 0 0 0 0 1 2 3 5 6 7 8 7 6 5 6 6 5 3 1 0 0 0
4 4 3 3 3 3 3 3 4 6 4 1 1 1 0 1 1 0 0 0 0 1 0 5 5 5 4 4 1 0 0 0 0
3 3 3 2 2 2 2 2 2 4 4 3 2 2 2 1 0 0 0 0 0 0 0 0 0 0 0 0 0 0 0 0 0
0 0 1 1 1 0 0 0 0 0 0 0 0 0 0 0 0 0 0 0 0 0 0 0 0 0 0 -0 -0 0 0 -0 0
Wind_Speed_500mb
80 79 90 98 114 116 113 109 110 106 102 101 100 96 94 88 82 74 65 64 57 59 62 58 47 49 47 44 38 34 35 33 31
69 82 87 101 109 118 121 117 112 111 107 97 104 102 99 96 90 83 71 65 63 60 64 62 54 52 46 40 41 38 37 36 34
72 79 88 99 102 104 115 121 116 112 106 102 100 105 105 102 94 88 78 69 66 62 62 67 65 58 51 46 44 43 44 40 35
71 78 86 90 98 107 108 108 112 114 110 110 107 106 107 104 102 97 87 80 68 66 65 65 74 71 59 53 51 48 48 45 41
68 70 74 82 90 94 99 105 106 108 108 109 110 109 106 106 102 100 94 88 77 71 68 69 73 75 69 61 59 52 48 47 48
43 46 59 71 77 83 97 102 102 101 101 104 105 106 107 107 105 104 99 94 84 77 74 74 76 79 80 74 71 66 57 54 52
59 54 43 58 75 86 94 101 101 98 98 98 98 100 102 102 105 102 100 94 92 87 81 78 82 84 84 80 77 73 66 60 59
43 43 41 41 63 84 91 95 99 98 95 96 94 94 98 103 102 100 99 99 97 92 88 86 83 87 91 90 88 83 76 70 66
48 46 41 40 53 71 85 89 94 99 95 93 90 91 92 95 100 99 99 101 102 97 93 93 91 91 95 98 99 94 87 80 74
61 65 64 58 47 63 75 84 91 95 90 90 93 92 92 95 97 97 96 98 101 103 102 99 98 97 98 101 103 100 93 84 78
87 84 76 73 61 49 65 79 84 86 89 91 96 97 94 98 95 95 93 91 95 98 104 107 103 102 104 102 102 102 100 91 84
79 63 68 65 54 41 62 78 82 84 87 92 95 92 95 93 93 95 96 95 92 96 99 106 109 109 108 108 106 101 94 84 88
68 65 70 45 49 47 54 83 90 84 86 92 95 93 92 94 96 97 98 95 90 92 95 99 104 110 112 109 104 100 88 80 86
49 54 58 48 53 50 45 60 82 87 82 88 87 90 89 88 90 93 92 92 89 85 89 93 98 104 107 112 104 98 85 83 82
39 47 54 51 53 46 44 47 64 68 65 67 76 78 77 71 73 74 82 84 82 78 77 85 93 97 97 103 92 77 75 72 67
29 33 38 41 37 42 37 39 47 52 56 56 57 60 64 62 65 72 74 73 73 78 74 73 74 78 86 92 93 77 72 79 78
34 31 29 22 23 24 20 15 19 31 44 52 41 40 42 49 57 58 58 59 60 60 60 58 59 67 74 79 76 81 80 86 69
53 50 47 42 37 32 26 19 15 10 4 13 22 28 29 28 34 43 48 51 53 45 49 53 57 65 57 55 60 64 57 72 83
54 52 45 43 38 31 28 24 19 12 7 5 5 7 8 11 19 28 32 39 34 30 32 44 60 50 32 25 22 39 52 24 8
48 45 40 39 34 31 28 25 23 21 16 10 5 5 6 6 7 16 29 40 41 51 59 45 39 15 23 23 64 32 21 19 44
Wind_Direction_500mb
221 217 218 217 222 226 229 230 230 229 230 231 231 231 231 230 232 232 233 233 233 226 223 229 235 229 237 239 239 239 232 232 237
225 222 219 221 223 223 227 230 228 229 231 234 234 234 234 232 232 233 233 234 235 232 230 229 230 232 234 237 237 237 233 231 236
226 224 220 223 224 221 225 230 234 231 232 233 236 236 237 236 235 235 234 234 235 234 231 228 229 230 231 235 235 237 230 230 234
225 227 229 232 229 226 230 231 231 235 234 234 234 238 239 239 237 237 237 235 235 237 235 230 229 231 231 233 231 232 228 228 231
238 242 242 240 233 227 221 228 230 233 235 236 239 238 239 240 241 239 238 236 235 237 238 234 230 230 230 229 226 224 225 225 228
247 253 242 238 231 219 225 227 228 233 236 240 240 238 239 240 240 239 238 238 235 235 238 236 233 230 231 228 228 226 227 229 232
248 246 256 231 225 225 225 228 230 233 237 241 240 239 239 239 240 240 238 238 236 234 236 237 236 233 231 231 231 230 231 233 236
245 262 258 246 231 225 228 228 231 234 237 237 239 239 239 242 242 241 240 235 236 237 236 238 240 238 236 235 236 236 235 237 241
236 243 247 260 245 233 228 231 234 236 236 237 237 239 243 243 241 241 240 238 234 235 238 238 240 242 240 240 241 241 241 241 245
243 246 252 256 254 244 236 236 237 236 240 239 236 237 239 240 239 240 240 238 237 233 235 239 240 241 242 242 243 244 243 241 244
246 249 251 253 251 248 247 243 240 243 241 241 240 239 237 237 239 240 240 238 238 236 234 236 239 243 244 244 245 245 246 244 245
244 248 250 255 235 257 246 240 239 241 243 243 244 240 239 240 242 242 239 238 239 239 236 236 238 241 244 246 247 247 248 245 243
249 246 247 241 234 251 250 234 235 235 242 243 240 244 247 246 246 245 241 243 243 242 241 242 242 243 245 247 248 249 247 243 239
250 243 237 246 259 247 251 233 229 233 245 241 253 253 247 246 245 245 246 245 245 245 245 245 244 246 247 249 247 247 243 240 234
261 233 230 240 240 233 237 234 227 241 237 245 243 243 240 241 244 247 245 244 245 251 247 251 248 246 245 249 250 246 238 233 231
225 226 219 218 219 226 241 240 230 231 234 238 235 239 246 251 253 252 248 247 247 249 243 238 236 233 239 242 243 237 223 217 208
125 117 121 138 185 196 205 215 230 240 244 248 259 268 268 266 262 258 253 251 249 245 247 243 239 240 236 236 247 244 221 209 193
105 102 97 98 98 99 94 93 105 117 199 255 258 260 262 262 255 253 251 250 246 241 240 240 239 237 225 221 223 229 226 201 161
96 91 88 82 75 68 56 41 37 44 35 7 321 278 267 262 253 249 240 221 210 208 200 197 215 188 146 81 100 150 144 170 333
88 80 72 69 66 59 48 35 29 26 34 33 42 121 154 192 207 210 210 207 186 167 140 134 129 151 322 346 324 212 295 221 189
Wind_Speed_850mb
80 79 90 98 114 116 113 109 110 106 102 101 100 96 94 88 82 74 65 64 57 59 62 58 47 49 47 44 38 34 35 33 31
69 82 87 101 109 118 121 117 112 111 107 97 104 102 99 96 90 83 71 65 63 60 64 62 54 52 46 40 41 38 37 36 34
72 79 88 99 102 104 115 121 116 112 106 102 100 105 105 102 94 88 78 69 66 62 62 67 65 58 51 46 44 43 44 40 35
71 78 86 90 98 107 108 108 112 114 110 110 107 106 107 104 102 97 87 80 68 66 65 65 74 71 59 53 51 48 48 45 41
68 70 74 82 90 94 99 105 106 108 108 109 110 109 106 106 102 100 94 88 77 71 68 69 73 75 69 61 59 52 48 47 48
43 46 59 71 77 83 97 102 102 101 101 104 105 106 107 107 105 104 99 94 84 77 74 74 76 79 80 74 71 66 57 54 52
59 54 43 58 75 86 94 101 101 98 98 98 98 100 102 102 105 102 100 94 92 87 81 78 82 84 84 80 77 73 66 60 59
43 43 41 41 63 84 91 95 99 98 95 96 94 94 98 103 102 100 99 99 97 92 88 86 83 87 91 90 88 83 76 70 66
48 46 41 40 53 71 85 89 94 99 95 93 90 91 92 95 100 99 99 101 102 97 93 93 91 91 95 98 99 94 87 80 74
61 65 64 58 47 63 75 84 91 95 90 90 93 92 92 95 97 97 96 98 101 103 102 99 98 97 98 101 103 100 93 84 78
87 84 76 73 61 49 65 79 84 86 89 91 96 97 94 98 95 95 93 91 95 98 104 107 103 102 104 102 102 102 100 91 84
79 63 68 65 54 41 62 78 82 84 87 92 95 92 95 93 93 95 96 95 92 96 99 106 109 109 108 108 106 101 94 84 88
68 65 70 45 49 47 54 83 90 84 86 92 95 93 92 94 96 97 98 95 90 92 95 99 104 110 112 109 104 100 88 80 86
49 54 58 48 53 50 45 60 82 87 82 88 87 90 89 88 90 93 92 92 89 85 89 93 98 104 107 112 104 98 85 83 82
39 47 54 51 53 46 44 47 64 68 65 67 76 78 77 71 73 74 82 84 82 78 77 85 93 97 97 103 92 77 75 72 67
29 33 38 41 37 42 37 39 47 52 56 56 57 60 64 62 65 72 74 73 73 78 74 73 74 78 86 92 93 77 72 79 78
34 31 29 22 23 24 20 15 19 31 44 52 41 40 42 49 57 58 58 59 60 60 60 58 59 67 74 79 76 81 80 86 69
53 50 47 42 37 32 26 19 15 10 4 13 22 28 29 28 34 43 48 51 53 45 49 53 57 65 57 55 60 64 57 72 83
54 52 45 43 38 31 28 24 19 12 7 5 5 7 8 11 19 28 32 39 34 30 32 44 60 50 32 25 22 39 52 24 8
48 45 40 39 34 31 28 25 23 21 16 10 5 5 6 6 7 16 29 40 41 51 59 45 39 15 23 23 64 32 21 19 44
Wind_Direction_850mb
221 217 218 217 222 226 229 230 230 229 230 231 231 231 231 230 232 232 233 233 233 226 223 229 235 229 237 239 239 239 232 232 237
225 222 219 221 223 223 227 230 228 229 231 234 234 234 234 232 232 233 233 234 235 232 230 229 230 232 234 237 237 237 233 231 236
226 224 220 223 224 221 225 230 234 231 232 233 236 236 237 236 235 235 234 234 235 234 231 228 229 230 231 235 235 237 230 230 234
225 227 229 232 229 226 230 231 231 235 234 234 234 238 239 239 237 237 237 235 235 237 235 230 229 231 231 233 231 232 228 228 231
238 242 242 240 233 227 221 228 230 233 235 236 239 238 239 240 241 239 238 236 235 237 238 234 230 230 230 229 226 224 225 225 228
247 253 242 238 231 219 225 227 228 233 236 240 240 238 239 240 240 239 238 238 235 235 238 236 233 230 231 228 228 226 227 229 232
248 246 256 231 225 225 225 228 230 233 237 241 240 239 239 239 240 240 238 238 236 234 236 237 236 233 231 231 231 230 231 233 236
245 262 258 246 231 225 228 228 231 234 237 237 239 239 239 242 242 241 240 235 236 237 236 238 240 238 236 235 236 236 235 237 241
236 243 247 260 245 233 228 231 234 236 236 237 237 239 243 243 241 241 240 238 234 235 238 238 240 242 240 240 241 241 241 241 245
243 246 252 256 254 244 236 236 237 236 240 239 236 237 239 240 239 240 240 238 237 233 235 239 240 241 242 242 243 244 243 241 244
246 249 251 253 251 248 247 243 240 243 241 241 240 239 237 237 239 240 240 238 238 236 234 236 239 243 244 244 245 245 246 244 245
244 248 250 255 235 257 246 240 239 241 243 243 244 240 239 240 242 242 239 238 239 239 236 236 238 241 244 246 247 247 248 245 243
249 246 247 241 234 251 250 234 235 235 242 243 240 244 247 246 246 245 241 243 243 242 241 242 242 243 245 247 248 249 247 243 239
250 243 237 246 259 247 251 233 229 233 245 241 253 253 247 246 245 245 246 245 245 245 245 245 244 246 247 249 247 247 243 240 234
261 233 230 240 240 233 237 234 227 241 237 245 243 243 240 241 244 247 245 244 245 251 247 251 248 246 245 249 250 246 238 233 231
225 226 219 218 219 226 241 240 230 231 234 238 235 239 246 251 253 252 248 247 247 249 243 238 236 233 239 242 243 237 223 217 208
125 117 121 138 185 196 205 215 230 240 244 248 259 268 268 266 262 258 253 251 249 245 247 243 239 240 236 236 247 244 221 209 193
105 102 97 98 98 99 94 93 105 117 199 255 258 260 262 262 255 253 251 250 246 241 240 240 239 237 225 221 223 229 226 201 161
96 91 88 82 75 68 56 41 37 44 35 7 321 278 267 262 253 249 240 221 210 208 200 197 215 188 146 81 100 150 144 170 333
88 80 72 69 66 59 48 35 29 26 34 33 42 121 154 192 207 210 210 207 186 167 140 134 129 151 322 346 324 212 295 221 189